NOAA 16 DEB, 41408

Orbit data source: Space-Track

NOAA 16 DEB, 41408 is space debris in SSO originally from a launch on Thu, 21 Sep 2000 UTC launched from the Air Force Western Test Range (AFWTR). Debris objects in space refer to the collection of defunct objects orbiting the Earth. Examples of debris include non-operational satellites, rocket bodies, and fragments generated from explosions, collisions, or faulty payload assembly.

Loading next visibility...
Identifier
41408, 2000-055KM
Orbit
SSO
Country
Flag of USUS
Related business
Manufacturer
Unknown
Mission
Spacecraft
Bus & Motor
Unknown
Mass
Unknown
Launch date (UTC)
2000-09-21 (25 years ago)
Launch vehicle
Unknown
Launch site
Air Force Western Test Range (AFWTR)
Object type
Payload
Rocket body
Debris
Shape & HBR
Unknown
Radar Cross Section
Small (<0.1 m²)

Expand to show TLE details & history
Last TLE update: 2 days ago

TLE from 2 days ago
0 NOAA 16 DEB
1 41408U 00055KM  25259.48579899  .00004145  00000-0  15842-2 0  9995
2 41408  98.7282 350.3428 0008835 330.1630  29.9048 14.31223995496044
Epoch: 2025-09-16T11:39Z
TLE epoch observation values (Epoch: 2025-09-16T11:39:33.032Z)
Latitude
-0.00003°
Longitude
179.77975°
Altitude
785.084 km
Speed
7.464 km/s
True Right ascension
23h 21m 22s
True Declination
0° 00' 00"
Sunlit
Object was in full shadow at epoch
Visualization orbit readout
Latitude
Unknown
Longitude
Unknown
Altitude
Unknown
Speed
Unknown
Apparent Right ascension
Unknown
Apparent Declination
Unknown
Sunlit
N/A
Visualization observer readout
Local Sidereal Time
20:48:26
Azimuth
Unknown
Elevation
Unknown
Doppler factor
Unknown
Orbital elements
Apogee altitude
791.115 km
Perigee altitude
778.458 km
Semi-major axis
7,162.924 km
Eccentricity
0.00088
Inclination
98.7282°
RAAN
350.3428°
Arg. of periapsis
330.163°
True anomaly
29.95532°
Mean anomaly
29.9048°
Eccentric anomaly
29.93006°
Mean motion
3.5802 °/min
Orbital period
100.55 mins
BSTAR
0.0015842
Loading maneuver chart data...
Computing Atmospheric mass density...
Loading historical data...
Loading historical data...
Loading historical data...
Loading historical data...
Loading historical data...
Loading historical data...
Loading historical data...

Documentation

Showing up to 5 results
|